Content
SEND FEEDBACK

Daily
Averages
Monthly
Summary
United States of America

DANEVANG, TEXAS


Home > North America > United States > Texas
Elevation: 7 feet     Latitude: 29 03N     Longitude: 096 14W

WEATHER
 
SELECT A DAY
Number of Records: 284,596;   Date Range: 3/24/03 - 10/20/14
 
SHARE

PRINT THIS DATA

[ ← Previous Day ]
WEATHER ALMANAC - FEBRUARY 13, 2013
[ Next Day → ]
[ °C ]   °F
Weather ElementAverageHighLow
Temperature53.3 °F63 °F (3:15 pm)43.9 °F (11:55 pm)
Dewpoint42.9 °F55.9 °F (12:35 am)39 °F (11:35 pm)
Humidity69.6 %93 % (12:35 am)43 % (3:55 pm)
Barometer30.07 in30.14 in (10:15 am)30.01 in (12:35 am)
Wind Speed8 mph17.3 mph (9:55 am)
Wind Gust24.2 mph (9:55 am)
Weather ElementAverage
Visibility10 mi
Wind DirectionWNW (295.6 °)

Weather ElementTotal
Precipitation0.02 in
Heating Degree Days11.6 (Base 65)
Growing Degree Days3.5 (Base 50)
Averaged from 71 records on February 13, 2013
WEATHER CONDITIONS BREAKOUT
WIND DIRECTION BREAKOUT
WEATHER BY HOUR - FEBRUARY 13, 2013
[ °C ]   °F
Local TimeTemperatureDewpointHumidityBarometerVisibilityWind DirectionWind SpeedGust SpeedPrecipitationEventsConditions
12:35 AM58.1 °F55.9 °F93 %30.01 in10.0 miNorth (10°)4.6 mphScattered Clouds
12:55 AM57.9 °F54.1 °F87 %30.01 in10.0 miNorth (360°)6.9 mphScattered Clouds
1:15 AM58.3 °F53.6 °F84 %30.02 in10.0 miNorth (350°)6.9 mphOvercast
1:35 AM58.5 °F53.1 °F82 %30.03 in10.0 miNNW (340°)5.8 mphOvercast
1:55 AM58.3 °F52.9 °F82 %30.03 in10.0 miNorth (350°)8.1 mphOvercast
2:15 AM58.1 °F52.7 °F82 %30.02 in10.0 miNorth (350°)9.2 mphOvercast
2:35 AM57.4 °F51.1 °F79 %30.04 in10.0 miNNW (340°)10.4 mphOvercast
2:55 AM56.3 °F49.1 °F77 %30.05 in10.0 miNNW (340°)9.2 mphScattered Clouds
3:15 AM55.2 °F49.5 °F81 %30.01 in10.0 miNorth (10°)10.4 mphRainRain
3:35 AM53.8 °F49.6 °F86 %30.04 in10.0 miNorth (10°)6.9 mphRainLight Rain
3:55 AM53.2 °F49.3 °F86 %30.05 in10.0 miNorth (350°)4.6 mphRainLight Rain
4:15 AM52.9 °F49.6 °F89 %30.06 in10.0 miCalmRainLight Rain
4:35 AM52.5 °F49.5 °F89 %30.06 in10.0 miNorth (360°)10.4 mphOvercast
4:55 AM52.0 °F47.5 °F85 %30.06 in10.0 miNorth (350°)9.2 mphOvercast
5:15 AM51.3 °F46.8 °F85 %30.08 in10.0 miNW (320°)6.9 mphOvercast
5:35 AM50.9 °F45.9 °F83 %30.07 in10.0 miNNW (330°)10.4 mphRainLight Rain
5:55 AM50.0 °F44.4 °F81 %30.07 in10.0 miNNW (330°)11.5 mph16.1 mphMostly Cloudy
6:15 AM49.5 °F44.1 °F82 %30.08 in10.0 miNNW (330°)9.2 mphRainLight Rain
6:35 AM48.6 °F43.5 °F83 %30.08 in10.0 miNNW (340°)15.0 mph19.6 mph0.01 inLight Drizzle
6:55 AM48.2 °F42.6 °F81 %30.10 in10.0 miNNW (330°)8.1 mph0.01 inMostly Cloudy
7:15 AM47.5 °F42.3 °F82 %30.08 in10.0 miNNW (340°)10.4 mphLight Drizzle
7:35 AM47.1 °F42.4 °F84 %30.09 in10.0 miNNW (340°)10.4 mphRainLight Rain
7:55 AM47.1 °F42.3 °F83 %30.09 in10.0 miNorth (350°)10.4 mphOvercast
8:15 AM47.3 °F41.4 °F80 %30.11 in10.0 miNorth (350°)12.7 mph18.4 mphOvercast
8:35 AM47.3 °F40.6 °F78 %30.11 in10.0 miNNW (340°)12.7 mph18.4 mphMostly Cloudy
8:55 AM47.3 °F41.0 °F79 %30.11 in10.0 miNNW (340°)10.4 mphRainLight Rain
9:15 AM47.3 °F41.2 °F79 %30.13 in10.0 miNorth (350°)9.2 mphScattered Clouds
9:35 AM48.2 °F41.7 °F78 %30.12 in10.0 miNorth (350°)15.0 mph20.7 mphMostly Cloudy
9:55 AM48.6 °F41.4 °F76 %30.12 in10.0 miNorth (350°)17.3 mph24.2 mphMostly Cloudy
10:15 AM49.5 °F41.0 °F73 %30.14 in10.0 miNNW (340°)13.8 mph18.4 mphMostly Cloudy
10:35 AM49.6 °F40.8 °F72 %30.13 in10.0 miNorth (360°)11.5 mphMostly Cloudy
10:55 AM50.0 °F40.1 °F69 %30.14 in10.0 miNNW (340°)15.0 mphScattered Clouds
11:15 AM51.1 °F40.5 °F67 %30.14 in10.0 miNNW (340°)10.4 mphMostly Cloudy
11:35 AM51.4 °F40.5 °F66 %30.14 in10.0 miNNW (330°)9.2 mphMostly Cloudy
11:55 AM51.8 °F40.5 °F65 %30.14 in10.0 miNW (320°)8.1 mphMostly Cloudy
12:15 PM52.7 °F40.6 °F64 %30.13 in10.0 miNNW (340°)9.2 mphMostly Cloudy
12:35 PM54.7 °F41.5 °F61 %30.13 in10.0 miNorth (350°)9.2 mphMostly Cloudy
12:55 PM57.0 °F40.8 °F55 %30.11 in10.0 miNNE (20°)10.4 mph18.4 mphClear
1:15 PM58.1 °F40.6 °F52 %30.10 in10.0 miNorth (360°)4.6 mphClear
1:35 PM59.2 °F40.8 °F51 %30.08 in10.0 miNW (310°)8.1 mphClear
1:55 PM59.9 °F40.5 °F49 %30.07 in10.0 miNW (320°)8.1 mphClear
2:15 PM61.0 °F40.6 °F47 %30.06 in10.0 miNNW (340°)12.7 mphClear
2:35 PM61.5 °F40.5 °F46 %30.06 in10.0 miNorth (360°)10.4 mphClear
2:55 PM62.2 °F40.8 °F45 %30.06 in10.0 miNNW (340°)5.8 mphClear
3:15 PM63.0 °F40.6 °F44 %30.05 in10.0 miNorth (360°)10.4 mphClear
3:35 PM62.8 °F40.6 °F44 %30.04 in10.0 miNW (320°)9.2 mphClear
3:55 PM62.6 °F39.9 °F43 %30.04 in10.0 miNNW (330°)10.4 mphClear
4:15 PM62.6 °F40.5 °F44 %30.04 in10.0 miNW (320°)8.1 mphClear
4:35 PM62.2 °F39.7 °F44 %30.04 in10.0 miNNW (330°)5.8 mphClear
4:55 PM62.1 °F39.6 °F44 %30.04 in10.0 miNorth (350°)10.4 mphClear
5:15 PM61.5 °F39.7 °F45 %30.04 in10.0 miNorth (350°)9.2 mphClear
5:35 PM60.6 °F39.7 °F46 %30.04 in10.0 miNNW (340°)10.4 mphClear
5:55 PM59.4 °F40.1 °F49 %30.04 in10.0 miNNW (340°)5.8 mphClear
6:15 PM57.4 °F40.3 °F53 %30.05 in10.0 miNNW (340°)4.6 mphClear
6:35 PM54.7 °F40.3 °F58 %30.04 in10.0 miNorth (350°)5.8 mphClear
6:55 PM53.4 °F40.1 °F61 %30.05 in10.0 miNNW (340°)4.6 mphClear
7:15 PM52.7 °F40.3 °F63 %30.05 in10.0 miNorth (350°)4.6 mphClear
7:35 PM51.1 °F40.5 °F67 %30.05 in10.0 miNorth (350°)4.6 mphClear
7:55 PM50.7 °F40.3 °F67 %30.06 in10.0 miNorth (350°)4.6 mphClear
8:15 PM50.4 °F40.3 °F68 %30.06 in10.0 miNorth (350°)4.6 mphClear
8:35 PM49.8 °F40.1 °F69 %30.07 in10.0 miNorth (350°)5.8 mphClear
8:55 PM48.9 °F40.1 °F72 %30.07 in10.0 miNorth (350°)5.8 mphClear
9:15 PM48.4 °F40.1 °F73 %30.07 in10.0 miNorth (360°)5.8 mphClear
9:35 PM48.2 °F39.7 °F73 %30.08 in10.0 miNorth (10°)4.6 mphClear
9:55 PM47.7 °F39.9 °F75 %30.09 in10.0 miNorth (360°)4.6 mphClear
10:15 PM47.7 °F39.7 °F74 %30.10 in10.0 miNorth (10°)4.6 mphClear
10:35 PM47.1 °F39.4 °F74 %30.10 in10.0 miCalmClear
10:55 PM46.0 °F39.7 °F79 %30.11 in10.0 miNorth (360°)3.5 mphClear
11:15 PM47.5 °F39.7 °F75 %30.11 in10.0 miNNW (340°)3.5 mphClear
11:35 PM45.5 °F39.0 °F78 %30.11 in10.0 miCalmClear
11:55 PM43.9 °F39.4 °F84 %30.11 in10.0 miCalmClear
Hourly data recorded from KBYY, located miles away from Danevang, Texas







STORIES FROM OUR PARTNERS